sat.trackr.live / text

‹ back to catalog

BSAT-4A

NORAD 42951 · 2017-059B

PAYLOAD ACTIVE UNKNOWN

§ Identity

Operator
Country
JPN
Launch date
2017-09-29
Launch site
FRGUI
Launch vehicle
Mass (kg)
RCS (m²)

Purposes: comms

External: N2YO · Heavens-Above · Gunter

§ Orbital elements

Epoch: 2026-09-20T00:20:08.946816Z

Period
1,436.12 min
Inclination
0.0469°
Eccentricity
0.0001583
Mean motion
1.00270393 rev/d
Perigee alt
35,780.3 km
Apogee alt
35,793.7 km
Semi-major
42,165.1 km
B*
0.0000e+0
RAAN
359.0656°
Arg perigee
106.8467°
Mean anomaly
7.8732°
Rev number
3,275

§ Raw data

BSAT-4A1 42951U 17059B   26263.01399244 -.00000354  00000+0  00000+0 0  99952 42951   0.0469 359.0656 0001583 106.8467   7.8732  1.00270393 32754

JSON: /api/v1/satellites/42951 · /tle

For live sub-satellite position, see the globe view (requires WebGL).

§ Visibility from observer

Set your observer location to see the next 7 days of passes ≥ 10°. The values pass through the URL so the page stays shareable.

No JS? Fill the form by hand. The geolocation button needs JavaScript.